Olney-Noble, IL

4:34 PM CDT on March 30, 2017 (GMT -0500)
Olney-Noble

Weather History for KOLY - August, 2014

Change the Weather History Date:

Tuesday, August 19, 2014

  Actual Average (KEVV) Record (KEVV)
Temperature  
Mean Temperature 74 °F -  
Max Temperature 84 °F 87 °F 104 °F (1936)
Min Temperature 64 °F 66 °F 50 °F (1943)
Cooling Degree Days 9    
Growing Degree Days 24 (Base 50)    
Moisture  
Dew Point 71 °F    
Average Humidity 88    
Maximum Humidity 100    
Minimum Humidity 74    
Precipitation  
Precipitation 0.00 in - - ()
Sea Level Pressure  
Sea Level Pressure 29.83 in    
Wind  
Wind Speed 1 mph (South)    
Max Wind Speed 7 mph    
Max Gust Speed -    
Visibility 7 miles    
Events Fog , Rain    
Averages and records for this station are not official NWS values.
T = Trace of Precipitation, MM = Missing Value Source: NWS Daily Summary

Daily Weather History Graph

Daily Weather History Graph

Search for Another Location

Airport or City:

Trip Planner

Search our weather history database for the weather conditions in past years. The results will help you decide how hot, cold, wet, or windy it might be!

Date:

Astronomy

Aug. 19, 2014 Rise Set
Actual Time 6:10 AM CDT 7:41 PM CDT
Civil Twilight 5:42 AM CDT 8:09 PM CDT
Nautical Twilight 5:08 AM CDT 8:43 PM CDT
Astronomical Twilight 4:32 AM CDT 9:19 PM CDT
Moon 1:03 AM CDT (8/19) 3:36 PM CDT (8/19)
Length of Visible Light 14h 27m
Length of Day
13h 31m
Waning Crescent, 29% of the Moon is Illuminated
Aug 19
Waning Crescent
Aug 25
New
Sep 2
First Quarter
Sep 8
Full
Sep 15
Last Quarter

Hourly Weather History & Observations

Time (CDT) Temp. Heat Index Dew Point Humidity Pressure Visibility Wind Dir Wind Speed Gust Speed Precip Events Conditions
12:17 AM 66.2 °F - 66.2 °F 100% 29.85 in 0.5 mi Calm Calm - N/A Fog Fog
12:39 AM 66.2 °F - 66.2 °F 100% 29.85 in 1.2 mi Calm Calm - N/A   Mostly Cloudy
1:17 AM 66.2 °F - 64.4 °F 94% 29.85 in 0.2 mi Calm Calm - N/A Fog Fog
1:57 AM 66.2 °F - 64.4 °F 94% 29.83 in 1.8 mi Calm Calm - N/A   Scattered Clouds
2:17 AM 64.4 °F - 64.4 °F 100% 29.83 in 2.5 mi Calm Calm - N/A   Clear
2:37 AM 64.4 °F - 64.4 °F 100% 29.83 in 1.8 mi Calm Calm - N/A   Mostly Cloudy
2:57 AM 64.4 °F - 64.4 °F 100% 29.83 in 0.2 mi Calm Calm - N/A Fog Fog
3:17 AM 64.4 °F - 64.4 °F 100% 29.83 in 2.0 mi Calm Calm - N/A   Overcast
3:57 AM 64.4 °F - 64.4 °F 100% 29.83 in 0.2 mi Calm Calm - N/A Fog Fog
4:17 AM 64.4 °F - 64.4 °F 100% 29.84 in 0.2 mi Calm Calm - N/A Fog Fog
4:38 AM 64.4 °F - 64.4 °F 100% 29.85 in 0.2 mi Calm Calm - N/A Fog Fog
4:57 AM 64.4 °F - 64.4 °F 100% 29.85 in 0.2 mi Calm Calm - N/A Fog Fog
5:17 AM 64.4 °F - 64.4 °F 100% 29.85 in 0.2 mi Calm Calm - N/A Fog Fog
5:37 AM 64.4 °F - 64.4 °F 100% 29.85 in 0.2 mi Calm Calm - N/A Fog Fog
5:56 AM 64.4 °F - 64.4 °F 100% 29.85 in 0.2 mi Calm Calm - N/A Fog Fog
6:18 AM 64.4 °F - 64.4 °F 100% 29.85 in 0.2 mi Calm Calm - N/A Fog Fog
6:36 AM 64.4 °F - 64.4 °F 100% 29.85 in 0.2 mi Calm Calm - N/A Fog Fog
6:56 AM 64.4 °F - 64.4 °F 100% 29.85 in 0.5 mi Calm Calm - N/A Fog Fog
7:16 AM 66.2 °F - 66.2 °F 100% 29.85 in 0.2 mi Calm Calm - N/A Fog Fog
7:36 AM 68.0 °F - 68.0 °F 100% 29.85 in 0.5 mi Calm Calm - N/A Fog Fog
7:56 AM 69.8 °F - 69.8 °F 100% 29.85 in 2.5 mi Calm Calm - N/A   Mostly Cloudy
8:17 AM 71.6 °F - 71.6 °F 100% 29.86 in 4.0 mi Calm Calm - N/A   Scattered Clouds
8:36 AM 73.4 °F - 71.6 °F 94% 29.86 in 7.0 mi Calm Calm - N/A   Clear
8:56 AM 75.2 °F - 73.4 °F 94% 29.86 in 7.0 mi Calm Calm - N/A   Clear
9:17 AM 75.2 °F - 73.4 °F 94% 29.86 in 10.0 mi Calm Calm - N/A   Clear
9:36 AM 77.0 °F - 73.4 °F 89% 29.86 in 10.0 mi South 6.9 mph - N/A   Clear
9:57 AM 80.6 °F 85.4 °F 73.4 °F 79% 29.86 in 10.0 mi Calm Calm - N/A   Clear
10:16 AM 80.6 °F 85.4 °F 73.4 °F 79% 29.85 in 10.0 mi SSE 6.9 mph - N/A   Clear
10:36 AM 82.4 °F 88.2 °F 73.4 °F 74% 29.85 in 10.0 mi South 6.9 mph - N/A   Clear
10:56 AM 82.4 °F 88.2 °F 73.4 °F 74% 29.85 in 10.0 mi SSE 5.8 mph - N/A   Clear
11:16 AM 82.4 °F 89.5 °F 75.2 °F 79% 29.86 in 10.0 mi South 6.9 mph - N/A   Clear
11:36 AM 82.4 °F 89.5 °F 75.2 °F 79% 29.86 in 10.0 mi Calm Calm - N/A   Scattered Clouds
11:56 AM 84.2 °F 92.3 °F 75.2 °F 74% 29.87 in 10.0 mi WSW 3.5 mph - N/A   Scattered Clouds
12:16 PM 84.2 °F 92.3 °F 75.2 °F 74% 29.87 in 10.0 mi Calm Calm - N/A   Mostly Cloudy
12:38 PM 84.2 °F 92.3 °F 75.2 °F 74% 29.86 in 10.0 mi Calm Calm - N/A   Mostly Cloudy
12:57 PM 84.2 °F 92.3 °F 75.2 °F 74% 29.85 in 10.0 mi Calm Calm - N/A   Clear
1:16 PM 84.2 °F 92.3 °F 75.2 °F 74% 29.84 in 10.0 mi Calm Calm - N/A   Clear
1:36 PM 84.2 °F 92.3 °F 75.2 °F 74% 29.81 in 10.0 mi Calm Calm - N/A   Clear
1:57 PM 82.4 °F 89.5 °F 75.2 °F 79% 29.80 in 10.0 mi South 5.8 mph - N/A   Clear
2:16 PM 82.4 °F 89.5 °F 75.2 °F 79% 29.83 in 10.0 mi Calm Calm - N/A   Scattered Clouds
2:36 PM 82.4 °F 89.5 °F 75.2 °F 79% 29.81 in 10.0 mi Calm Calm - N/A Rain Light Rain
2:56 PM 82.4 °F 90.9 °F 77.0 °F 84% 29.81 in 10.0 mi Calm Calm - N/A   Scattered Clouds
3:16 PM 82.4 °F 90.9 °F 77.0 °F 84% 29.80 in 10.0 mi Calm Calm - N/A   Scattered Clouds
3:37 PM 84.2 °F 94.1 °F 77.0 °F 79% 29.80 in 10.0 mi SSW 6.9 mph - N/A   Scattered Clouds
3:56 PM 84.2 °F 94.1 °F 77.0 °F 79% 29.80 in 10.0 mi South 5.8 mph - N/A   Scattered Clouds
4:16 PM 84.2 °F 94.1 °F 77.0 °F 79% 29.79 in 10.0 mi SSW 5.8 mph - N/A   Scattered Clouds
4:36 PM 84.2 °F 94.1 °F 77.0 °F 79% 29.79 in 10.0 mi SSW 5.8 mph - N/A   Scattered Clouds
4:56 PM 82.4 °F 89.5 °F 75.2 °F 79% 29.80 in 10.0 mi Calm Calm - N/A   Scattered Clouds
5:16 PM 84.2 °F 92.3 °F 75.2 °F 74% 29.80 in 10.0 mi WSW 3.5 mph - N/A   Clear
5:36 PM 82.4 °F 89.5 °F 75.2 °F 79% 29.80 in 10.0 mi Calm Calm - N/A   Clear
5:56 PM 84.2 °F 92.3 °F 75.2 °F 74% 29.79 in 10.0 mi Calm Calm - N/A   Clear
6:18 PM 84.2 °F 92.3 °F 75.2 °F 74% 29.78 in 10.0 mi Calm Calm - N/A   Clear
6:37 PM 82.4 °F 88.2 °F 73.4 °F 74% 29.78 in 10.0 mi Calm Calm - N/A   Clear
6:56 PM 82.4 °F 88.2 °F 73.4 °F 74% 29.79 in 10.0 mi Calm Calm - N/A   Clear
7:16 PM 80.6 °F 85.4 °F 73.4 °F 79% 29.80 in 10.0 mi Calm Calm - N/A   Clear
7:36 PM 80.6 °F 85.4 °F 73.4 °F 79% 29.80 in 10.0 mi Calm Calm - N/A   Clear
7:59 PM 78.8 °F - 73.4 °F 83% 29.80 in 10.0 mi Calm Calm - N/A   Clear
8:16 PM 77.0 °F - 73.4 °F 89% 29.80 in 10.0 mi Calm Calm - N/A   Clear
8:36 PM 73.4 °F - 73.4 °F 100% 29.81 in 10.0 mi Calm Calm - N/A   Clear
8:56 PM 75.2 °F - 73.4 °F 94% 29.82 in 10.0 mi Calm Calm - N/A   Clear
9:16 PM 75.2 °F - 73.4 °F 94% 29.82 in 10.0 mi Calm Calm - N/A   Clear
9:37 PM 75.2 °F - 73.4 °F 94% 29.82 in 10.0 mi Calm Calm - N/A   Clear
9:57 PM 75.2 °F - 73.4 °F 94% 29.83 in 10.0 mi Calm Calm - N/A   Clear
10:16 PM 75.2 °F - 73.4 °F 94% 29.84 in 10.0 mi Calm Calm - N/A   Clear
10:38 PM 75.2 °F - 73.4 °F 94% 29.84 in 10.0 mi Calm Calm - N/A   Clear
10:56 PM 75.2 °F - 73.4 °F 94% 29.84 in 10.0 mi Calm Calm - N/A   Clear
11:16 PM 73.4 °F - 71.6 °F 94% 29.85 in 7.0 mi Calm Calm - N/A   Clear
11:36 PM 71.6 °F - 71.6 °F 100% 29.85 in 7.0 mi Calm Calm - N/A   Clear
11:56 PM 71.6 °F - 69.8 °F 94% 29.85 in 4.0 mi Calm Calm - N/A   Clear